Flag for Canada Weather past 2 weeks in Thunder Bay, Ontario, Canada

Now
46 °F

Fog.


Feels Like: 44 °F
Forecast: 44 / 63 °F
Wind: 6 mph from Northeast

Location: Thunder Bay

Current Time: May 29, 2015 at 9:18:10 AM

Latest Report: May 29, 2015 at 8:00 AM


Visibility: 6 mi

Pressure: 29.88 "Hg

Humidity: 93%

Dew point: 45 °F

Location of Thunder BayLocation

Historic Weather in Thunder Bay — Graph

°F

Thunder Bay temperature yesterday

Maximum temperature yesterday: 55 °F (at 12:00 AM)
Minimum temperature yesterday: 39 °F (at 7:00 AM)
Average temperature yesterday: 48 °F

Past Weeks' High & Low Weather Summary

 TemperatureHumidityPressure
High82 °F (May 23, 3:00 PM)100% (May 16, 3:49 AM)30.35 "Hg (May 16, 3:49 AM)
Low27 °F (May 22, 6:00 AM)15% (May 21, 6:00 PM)29.61 "Hg (May 18, 2:52 AM)
Average51 °F72%30.01 "Hg
* Reported May 14 8:00 AM — May 29 8:00 AM, Thunder Bay, Weather by CustomWeather, © 2015

Note: Actual official high and low records may vary slightly from our data, if they occured in-between our weather recording intervals... More about our weather records

Advertising

Thunder Bay weather history for previous 24 hours

 ConditionsComfort  
Time TempWeatherWind HumidityBarometerVisibility
8:00 AM
Fri, May 29
46 °FFog.6 mph93%29.88 "Hg6 mi
7:47 AM46 °FFog.7 mph100%29.89 "Hg6 mi
7:00 AM46 °FFog.6 mph100%29.88 "Hg2 mi
6:00 AM46 °FFog.5 mph93%29.88 "Hg2 mi
5:00 AM46 °FPartly cloudy.3 mph93%29.88 "Hg8 mi
4:00 AM46 °FPassing clouds.5 mph100%29.91 "Hg8 mi
3:00 AM46 °FFog.2 mph100%29.92 "Hg3 mi
2:00 AM46 °FFog.No wind100%29.94 "Hg5 mi
1:00 AM46 °FFog.3 mph100%29.95 "Hg4 mi
12:00 AM46 °FFog.5 mph100%29.97 "Hg4 mi
11:00 PM
Thu, May 28
46 °FFog.6 mph100%29.98 "Hg2 mi
10:00 PM48 °FFog.7 mph94%29.98 "Hg1 mi
9:00 PM48 °FFog.10 mph94%30.00 "Hg5 mi
8:51 PM48 °FLow clouds.13 mph94%30.00 "Hg8 mi
8:00 PM48 °FLow clouds.12 mph94%30.03 "Hg8 mi
7:00 PM48 °FLow clouds.13 mph87%30.06 "Hg15 mi
6:00 PM50 °FOvercast.12 mph82%30.10 "Hg20 mi
5:00 PM50 °FLow clouds.8 mph76%30.12 "Hg20 mi
4:00 PM50 °FLow clouds.14 mph76%30.14 "Hg20 mi
3:00 PM50 °FLow clouds.18 mph82%30.15 "Hg20 mi
2:00 PM48 °FLow clouds.16 mph82%30.18 "Hg15 mi
1:00 PM48 °FDrizzle. Low clouds.16 mph82%30.20 "Hg20 mi
12:00 PM52 °FPartly sunny.16 mph72%30.21 "Hg15 mi
11:00 AM50 °FBroken clouds.17 mph71%30.21 "Hg20 mi
10:00 AM50 °FBroken clouds.13 mph71%30.22 "Hg20 mi
9:00 AM48 °FScattered clouds.12 mph76%30.23 "Hg20 mi
Weather by CustomWeather, © 2015

See weather overviewHow to use our weather pages